#timestamp,LO_Frequency,Hit,StdDev 
1569621615.7,286047002.3,N
1569621635.6,286047000.5,N
1569621655.4,286047001.1,N
1569621675.3,286047000.9,N
1569621695.1,286046998.8,N
1569621696.0,286046998.8,N
1569621715.8,286046998.8,N
1569621735.7,286046998.8,N
1569621755.5,286047001.1,N
1569621775.3,286046998.6,N
1569621795.2,286046998.9,N
1569621815.0,286046999.0,N
1569621815.9,286046999.0,N
1569621835.8,286046999.5,N
1569621855.6,286046996.6,N
1569621875.4,286046999.2,N
1569621895.3,286046996.6,N
1569621915.1,286046996.5,N
1569621935.9,286046997.7,N
1569621955.7,286046996.9,N
1569621975.5,286046997.0,N
1569621995.4,286046996.6,N
1569622015.2,286046995.0,N
1569622035.0,286046993.6,Y
1569622035.9,286046993.6,P
1569622055.8,286046993.5,N
1569622075.6,286046993.6,N
1569622095.5,286046994.0,N
1569622115.3,286046994.3,N
1569622135.1,286046993.4,Y
1569622155.9,286046998.5,P
1569622175.7,286046999.6,N
1569622195.6,286046997.5,N
1569622215.4,286046997.1,N
1569622235.2,286046996.7,N
1569622255.1,286046995.0,Y
1569622256.0,286046995.0,P
1569622275.8,286046998.6,N
1569622295.7,286047000.9,N
1569622315.5,286047000.7,N
1569622335.3,286047002.4,N
1569622355.2,286047001.7,N
1569622375.0,286047000.2,N
1569622375.9,286047000.2,N
1569622395.7,286046999.0,N
1569622415.6,286047001.0,N
1569622435.4,286046998.6,N
1569622455.3,286046998.7,N
1569622475.1,286046999.0,N
1569622495.8,286047001.2,N
1569622515.7,286046998.7,N
1569622535.5,286046998.6,N
1569622555.4,286046998.7,N
1569622575.2,286046998.7,N
1569622595.0,286046999.6,N
1569622595.9,286046999.6,N
1569622615.8,286046999.6,N
1569622635.6,286046996.8,N
1569622655.4,286046999.6,N
1569622675.3,286046997.5,N
1569622695.1,286046996.5,N
1569622715.9,286046998.6,N
1569622735.7,286046998.3,N
1569622755.5,286046998.8,N
1569622775.4,286046998.2,N
1569622795.2,286046996.6,N
1569622815.1,286046996.8,N
1569622816.0,286046996.8,N
1569622835.8,286046996.6,N
1569622855.6,286046997.7,N
1569622875.5,286046999.3,N
1569622895.3,286046998.4,N
1569622915.2,286047000.6,N
1569622935.9,286046999.9,N
1569622955.7,286047000.2,N
1569622975.6,286047002.1,N
1569622995.4,286047000.6,N
1569623015.2,286046999.7,N
1569623035.1,286047002.0,N
1569623036.0,286047002.0,N
1569623055.8,286046998.2,N
1569623075.7,286047001.0,N
1569623095.5,286047000.3,N
1569623115.3,286047001.1,N
1569623135.2,286046999.8,N
1569623155.0,286047001.6,N
1569623155.9,286047001.6,N
1569623175.8,286047002.7,N
1569623195.6,286047001.4,N
1569623215.4,286047001.5,N
1569623235.3,286047000.2,N
1569623255.1,286047002.8,N
1569623275.9,286047000.8,N
1569623295.7,286047000.3,N
1569623315.5,286047001.0,N
1569623335.4,286047001.0,N
1569623355.2,286047000.7,N
1569623375.0,286047000.3,N
1569623375.9,286047000.3,N
1569623395.8,286047000.0,N
1569623415.6,286047000.4,N
1569623435.5,286047002.6,N
1569623455.3,286046999.8,N
1569623475.1,286047002.4,N
1569623495.9,286047002.0,N
1569623515.7,286047004.4,Y
1569623535.6,286046999.7,P
1569623555.4,286047002.5,P
1569623575.2,286047002.6,N
1569623595.1,286047001.8,N
1569623596.0,286047001.8,N
1569623615.8,286047000.0,N
1569623635.7,286047000.2,N
1569623655.5,286047002.4,N
1569623675.3,286047002.4,N
1569623695.2,286047001.9,N
1569623715.0,286046999.8,N
1569623715.9,286046999.8,N
1569623735.7,286047001.8,N
1569623755.6,286047003.6,Y
1569623775.4,286047001.0,P
1569623795.3,286047000.4,N
1569623815.1,286047001.1,N
1569623835.8,286047001.0,N
1569623855.7,286047002.4,Y
1569623875.5,286046999.0,P
1569623895.4,286046996.9,P
1569623915.2,286046999.6,N
1569623935.0,286046999.6,N
1569623935.9,286046999.6,N
1569623955.8,286046999.3,N
1569623975.6,286046998.6,N
1569623995.4,286047001.2,N
1569624015.3,286046998.9,N
1569624035.1,286046999.1,N
1569624055.9,286046999.9,N
1569624075.7,286047001.1,N
1569624095.5,286046998.4,N
1569624115.4,286046999.8,N
1569624135.2,286046999.9,N
1569624155.1,286047004.1,Y
1569624156.0,286047004.1,P
1569624175.8,286047003.6,N
1569624195.6,286047004.2,N
1569624215.5,286047002.1,N
1569624235.3,286047002.7,N
1569624255.1,286046999.7,N
1569624275.9,286047002.3,N
1569624295.7,286047002.6,N
1569624315.6,286046999.9,N
1569624335.4,286047000.8,N
1569624355.2,286047002.5,N
1569624375.1,286046999.8,N
1569624376.0,286046999.8,N
1569624395.8,286047001.3,N
1569624415.7,286047002.6,N
1569624435.5,286046999.9,N
1569624455.3,286047000.3,N
1569624475.2,286047000.3,N
1569624495.0,286046998.4,N
1569624495.9,286046998.4,N
1569624515.8,286047000.8,N
1569624535.6,286047000.7,N
1569624555.4,286047000.7,N
1569624575.3,286047000.6,N
1569624595.1,286046998.3,N
1569624615.8,286047000.4,N
1569624635.7,286047002.4,N
1569624655.5,286047002.7,N
1569624675.4,286047001.1,N
1569624695.2,286047000.7,N
1569624715.0,286047000.8,N
1569624716.0,286047000.8,N
1569624735.8,286047000.7,N
1569624755.6,286046998.6,N
1569624775.5,286047001.2,N
1569624795.3,286047000.1,N
1569624815.2,286046999.7,N
1569624835.9,286046999.9,N
1569624855.7,286047001.2,N
1569624875.6,286047000.8,N
1569624895.4,286047000.9,N
1569624915.2,286047001.2,N
1569624935.1,286047000.8,N
1569624936.0,286047000.8,N
1569624955.8,286047000.0,N
1569624975.7,286047000.1,N
1569624995.5,286046998.1,N
1569625015.3,286046999.2,N
1569625035.2,286046999.1,N
1569625055.0,286046998.7,N
1569625055.9,286046998.7,N
1569625075.8,286046998.2,N
1569625095.6,286046998.8,N
1569625115.4,286047002.7,N
1569625135.3,286047000.0,N
1569625155.1,286047000.6,N
1569625175.8,286046998.4,N
1569625195.7,286046999.7,N
